Weather History for Broken Bow, NE

Change the Weather History Date:

Wednesday, January 15, 2014

  Actual Average Record
Temperature  
Mean Temperature 36 °F 26 °F  
Max Temperature 56 °F 38 °F 72 °F (1938)
Min Temperature 15 °F 14 °F -21 °F (1905)
Degree Days  
Heating Degree Days 29 39  
Month to date heating degree days 602 592  
Cooling Degree Days 0 0  
Month to date cooling degree days 0 0  
Year to date cooling degree days 0 0  
Moisture  
Dew Point 23 °F    
Average Humidity 62    
Maximum Humidity 92    
Minimum Humidity 32    
Precipitation  
Precipitation T in 0.01 in 0.49 in (1960)
Sea Level Pressure  
Sea Level Pressure 30.03 in    
Wind  
Wind Speed 10 mph (WNW)    
Max Wind Speed 32 mph    
Max Gust Speed 38 mph    
Visibility 10 miles    
Events      
T = Trace of Precipitation, MM = Missing Value Source: NWS Daily Summary

Daily Weather History Graph

Daily Weather History Graph

Search for Another Location

Airport:

Trip Planner

Search our weather history database for the weather conditions in past years. The results will help you decide how hot, cold, wet, or windy it might be!

Date:

Astronomy

Jan. 15, 2014 Rise Set
Actual Time 8:02 AM CST 5:33 PM CST
Civil Twilight 7:31 AM CST 6:04 PM CST
Nautical Twilight 6:57 AM CST 6:38 PM CST
Astronomical Twilight 6:24 AM CST 7:11 PM CST
Moon 5:33 PM CST (1/15) 7:18 AM CST (1/15)
Length of Visible Light 10h 32m
Length of Day
9h 31m
Full, 100% of the Moon is Illuminated
Jan 15
Full
Jan 15
Full
Jan 23
Last Quarter
Jan 30
New
Feb 6
First Quarter

Hourly Weather History & Observations

Time (CST) Temp. Windchill Dew Point Humidity Pressure Visibility Wind Dir Wind Speed Gust Speed Precip Events Conditions
12:53 AM 25.0 °F 15.5 °F 18.0 °F 75% 30.27 in 10.0 mi NW 9.2 mph - N/A   Overcast
1:53 AM 21.0 °F 14.6 °F 17.1 °F 85% 30.27 in 10.0 mi NW 4.6 mph - N/A   Mostly Cloudy
2:53 AM 19.0 °F 11.1 °F 16.0 °F 88% 30.27 in 10.0 mi NW 5.8 mph - N/A   Mostly Cloudy
3:53 AM 18.0 °F - 16.0 °F 92% 30.26 in 10.0 mi Calm Calm - N/A   Clear
4:53 AM 16.0 °F - 14.0 °F 92% 30.24 in 10.0 mi Calm Calm - N/A   Mostly Cloudy
5:53 AM 19.0 °F 12.3 °F 17.1 °F 92% 30.22 in 10.0 mi SW 4.6 mph - N/A   Overcast
6:53 AM 21.0 °F - 18.0 °F 88% 30.19 in 10.0 mi Calm Calm - N/A   Overcast
7:53 AM 23.0 °F 18.4 °F 19.9 °F 88% 30.16 in 10.0 mi SSW 3.5 mph - N/A   Overcast
8:53 AM 26.1 °F 21.9 °F 21.9 °F 84% 30.13 in 10.0 mi SSW 3.5 mph - N/A   Overcast
9:53 AM 28.9 °F 21.1 °F 23.0 °F 78% 30.11 in - SSW 8.1 mph - 0.00 in   Overcast
10:53 AM 35.1 °F 26.9 °F 23.0 °F 61% 30.07 in 10.0 mi SW 11.5 mph - N/A   Overcast
11:53 AM 39.9 °F 31.1 °F 24.1 °F 53% 30.02 in 10.0 mi WSW 17.3 mph - N/A   Mostly Cloudy
12:53 PM 44.1 °F 37.4 °F 25.0 °F 47% 29.93 in 10.0 mi West 13.8 mph - N/A   Overcast
1:53 PM 48.0 °F - 27.0 °F 44% 29.88 in 10.0 mi West 13.8 mph - N/A   Partly Cloudy
2:53 PM 53.1 °F - 24.1 °F 32% 29.85 in 10.0 mi WNW 13.8 mph 23.0 mph N/A   Overcast
3:53 PM 54.0 °F - 24.1 °F 31% 29.85 in 10.0 mi WNW 15.0 mph 31.1 mph N/A   Scattered Clouds
4:53 PM 52.0 °F - 24.1 °F 34% 29.86 in 10.0 mi NNW 18.4 mph 24.2 mph N/A   Mostly Cloudy
5:53 PM 50.0 °F - 25.0 °F 38% 29.87 in 10.0 mi NNW 25.3 mph 34.5 mph N/A   Mostly Cloudy
6:53 PM 46.0 °F 39.9 °F 30.9 °F 56% 29.88 in 10.0 mi NW 13.8 mph - N/A   Overcast
7:53 PM 41.0 °F 33.9 °F 30.0 °F 65% 29.90 in 10.0 mi NW 12.7 mph - N/A   Clear
8:53 PM 42.1 °F 34.5 °F 28.0 °F 58% 29.88 in 10.0 mi WNW 15.0 mph - N/A   Clear
9:53 PM 43.0 °F 35.4 °F 25.0 °F 49% 29.88 in 10.0 mi WNW 16.1 mph - N/A   Mostly Cloudy
10:53 PM 42.1 °F 34.9 °F 25.0 °F 51% 29.90 in 10.0 mi NW 13.8 mph - N/A   Overcast
11:53 PM 39.0 °F 31.8 °F 25.0 °F 57% 29.89 in 10.0 mi NW 11.5 mph - N/A   Mostly Cloudy